Skip Page Navigation
NASA JPL Caltech
NASA Logo - Jet Propulsion Laboratory + View the NASA Portal
+ Center for Near-Earth Object Studies
JPL Home Earth Solar System Stars & Galaxies Technology
JPL Solar System Dynamics
BODIES ORBITS EPHEMERIDES TOOLS PHYSICAL DATA DISCOVERY FAQ SITE MAP
JPL Small-Body Database Browser
Search: [ help ]  
183240 (2002 TG96)
Classification: Main-belt Asteroid          SPK-ID: 2183240
Ephemeris | Orbit Diagram | Orbital Elements | Mission Design | Physical Parameters | Discovery Circumstances ]

[ show orbit diagram ]
Orbital Elements at Epoch 2459000.5 (2020-May-31.0) TDB
Reference: JPL 19 (heliocentric ecliptic J2000)
 Element Value Uncertainty (1-sigma)   Units 
e .2027154602968927 1.1607e-07  
a 2.538379310830411 1.9124e-08 au
q 2.023810580427315 2.9889e-07 au
i 6.120471244415559 5.1054e-06 deg
node 231.4360605246902 4.0275e-05 deg
peri 142.6464918855805 4.2294e-05 deg
M 171.8220437301412 2.0107e-05 deg
tp 2458295.466772085556
(2018-Jun-25.96677209)
8.3455e-05 TDB
period 1477.179275366027
4.04
1.6693e-05
4.57e-08
d
yr
n .2437077245825808 2.7541e-09 deg/d
Q 3.052948041233507 2.3e-08 au
  Orbit Determination Parameters
   # obs. used (total)      678  
   data-arc span      7802 days (21.36 yr)  
   first obs. used      1998-12-15  
   last obs. used      2020-04-25  
   planetary ephem.      DE431  
   SB-pert. ephem.      SB431-N16  
   condition code      0  
   norm. resid. RMS      .51625  
   source      ORB  
   producer      Otto Matic  
   solution date      2020-May-21 04:37:37  

Additional Information
 Earth MOID = 1.02912 au 
 Jupiter MOID = 2.43267 au 
 T_jup = 3.410 
[ hide covariance matrix ]
Orbital Elements at Epoch 2457462.5 (2016-Mar-15.0) TDB
Reference: JPL 19 (heliocentric ecliptic J2000)
 Element Value Uncertainty (1-sigma)   Units 
e .2010476622875736 1.1565e-07  
q 2.030504763472014 2.9736e-07 au
tp 2456815.708504724804
(2014-Jun-07.20850472)
8.7806e-05 TDB
node 231.5003193948035 4.035e-05 deg
peri 142.4798744639973 4.239e-05 deg
i 6.110454637047547 5.0993e-06 deg
  Orbit Determination Parameters
   # obs. used (total)      678  
   data-arc span      7802 days (21.36 yr)  
   first obs. used      1998-12-15  
   last obs. used      2020-04-25  
   planetary ephem.      DE431  
   SB-pert. ephem.      SB431-N16  
   condition code      0  
   norm. resid. RMS      .51625  
   source      ORB  
   producer      Otto Matic  
   solution date      2020-May-21 04:37:37  

Additional Information
 Jupiter MOID = 2.43267 au 
 T_jup = 3.410 
Orbit Covariance (6×6)
  e q tp node peri i
e 1.337586607864287E-14 -3.434820096572867E-14 8.365891345483016E-12 2.533609313878405E-13 8.334464974480989E-13 2.252170240615924E-15
q -3.434820096572867E-14 8.842399780470879E-14 -2.167334622813075E-11 -6.534733565468849E-13 -2.157071969269763E-12 -5.642709182479787E-15
tp 8.365891345483016E-12 -2.167334622813075E-11 7.709864322221457E-9 1.785764554202728E-10 1.083534018224643E-9 -1.546954359893288E-12
node 2.533609313878405E-13 -6.534733565468849E-13 1.785764554202728E-10 1.628158730091512E-9 -1.592811513915169E-9 9.169177708851349E-12
peri 8.334464974480989E-13 -2.157071969269763E-12 1.083534018224643E-9 -1.592811513915169E-9 1.796905576697646E-9 -9.629115085175681E-12
i 2.252170240615924E-15 -5.642709182479787E-15 -1.546954359893288E-12 9.169177708851349E-12 -9.629115085175681E-12 2.600270017737586E-11

Ephemeris | Orbit Diagram | Orbital Elements | Mission Design | Physical Parameters | Discovery Circumstances ]

Physical Parameter Table
Parameter Symbol Value Units Sigma Reference Notes
absolute magnitude H 15.1   n/a MPO454260  

183240 (2002 TG96)          Discovered 2002-Oct-03 by NEAT at Palomar
Reference: 20080420/Numbers.arcLast Updated: 2008-04-23
Ephemeris | Orbit Diagram | Orbital Elements | Mission Design | Physical Parameters | Discovery Circumstances ]
ABOUT SSD CREDITS/AWARDS PRIVACY/COPYRIGHT GLOSSARY LINKS
FirstGov 2020-Jul-11 08:57 UT
(server date/time)  
NASA Home Page
Site Manager:   Ryan S. Park
Webmaster  Alan B. Chamberlin